Sauk Centre, MN

10:11 AM CST on December 06, 2019 (GMT -0600)
Sauk Centre

Weather History for KD39 - September, 2019

Change the Weather History Date:

Friday, September 20, 2019

  Actual Average (WUND) Record (WUND)
Temperature  
Mean Temperature 70 °F -  
Max Temperature 80 °F - - (-1)
Min Temperature 60 °F - - (-1)
Cooling Degree Days 5    
Growing Degree Days 20 (Base 50)    
Moisture  
Dew Point 67 °F    
Average Humidity 89    
Maximum Humidity 100    
Minimum Humidity 74    
Precipitation  
Precipitation 0.00 in - - ()
Sea Level Pressure  
Sea Level Pressure 29.95 in    
Wind  
Wind Speed 7 mph ()    
Max Wind Speed 15 mph    
Max Gust Speed 23 mph    
Visibility 9.2 miles    
Events      
Averages and records for this station are not official NWS values.
T = Trace of Precipitation, MM = Missing Value Source: Averaged Metar Reports

Daily Weather History Graph

Daily Weather History Graph

Search for Another Location

Airport or City:

Astronomy

Sep. 20, 2019 Rise Set
Actual Time 7:04 AM CDT 7:21 PM CDT
Civil Twilight 6:34 AM CDT 7:51 PM CDT
Nautical Twilight 5:59 AM CDT 8:26 PM CDT
Astronomical Twilight 5:23 AM CDT 9:02 PM CDT
Moon 10:53 PM CDT (9/20) 1:27 PM CDT (9/20)
Length of Visible Light 13h 16m
Length of Day
12h 17m
Waning Gibbous, 65% of the Moon is Illuminated
Sep 20
Waning Gibbous
Sep 21
Last Quarter
Sep 28
New
Oct 5
First Quarter
Oct 13
Full

Hourly Weather History & Observations

Time (CDT) Temp. Heat Index Dew Point Humidity Pressure Visibility Wind Dir Wind Speed Gust Speed Precip Events Conditions
12:59 AM 62.6 °F - 60.8 °F 94% 30.04 in 10.0 mi East 3.5 mph - N/A   Clear
1:59 AM 60.8 °F - 60.8 °F 100% 30.04 in 10.0 mi Calm Calm - N/A   Clear
2:59 AM 60.8 °F - 60.8 °F 100% 30.04 in 10.0 mi East 5.8 mph - N/A   Clear
3:59 AM 60.8 °F - 60.8 °F 100% 30.03 in 10.0 mi ESE 4.6 mph - N/A   Clear
4:59 AM 62.6 °F - 60.8 °F 94% 30.02 in 10.0 mi ESE 3.5 mph - N/A   Clear
5:59 AM 62.6 °F - 62.6 °F 100% 30.01 in 7.0 mi ESE 5.8 mph - N/A   Scattered Clouds
6:59 AM 62.6 °F - 62.6 °F 100% 30.01 in 5.0 mi East 8.1 mph - N/A   Mostly Cloudy
7:59 AM 64.4 °F - 64.4 °F 100% 30.00 in 4.0 mi ESE 6.9 mph - N/A   Overcast
8:59 AM 68.0 °F - 66.2 °F 94% 30.00 in 7.0 mi ESE 9.2 mph 16.1 mph N/A   Mostly Cloudy
9:59 AM 69.8 °F - 68.0 °F 94% 29.99 in 7.0 mi SE 15.0 mph 19.6 mph N/A   Overcast
10:59 AM 71.6 °F - 68.0 °F 88% 29.98 in 10.0 mi SSE 15.0 mph 23.0 mph N/A   Overcast
11:59 AM 73.4 °F - 69.8 °F 88% 29.97 in 10.0 mi SSE 13.8 mph 18.4 mph N/A   Overcast
12:59 PM 78.8 °F - 71.6 °F 78% 29.96 in 10.0 mi SSE 13.8 mph - N/A   Mostly Cloudy
1:59 PM 80.6 °F 84.6 °F 71.6 °F 74% 29.94 in 10.0 mi SSE 9.2 mph - N/A   Mostly Cloudy
2:59 PM 78.8 °F - 71.6 °F 78% 29.93 in 10.0 mi SE 11.5 mph 17.3 mph N/A   Scattered Clouds
3:59 PM 80.6 °F 84.6 °F 71.6 °F 74% 29.93 in 10.0 mi SE 10.4 mph - N/A   Overcast
4:59 PM 78.8 °F - 71.6 °F 78% 29.92 in 10.0 mi SE 11.5 mph - N/A   Scattered Clouds
5:59 PM 78.8 °F - 71.6 °F 78% 29.91 in 10.0 mi SE 13.8 mph - N/A   Clear
6:59 PM 77.0 °F - 71.6 °F 83% 29.89 in 10.0 mi SE 11.5 mph 17.3 mph N/A   Clear
7:59 PM 75.2 °F - 71.6 °F 89% 29.88 in 10.0 mi ESE 10.4 mph - N/A   Clear
8:59 PM 75.2 °F - 71.6 °F 89% 29.86 in 10.0 mi SE 11.5 mph - N/A   Clear
9:59 PM 73.4 °F - 69.8 °F 88% 29.86 in 10.0 mi SE 12.7 mph - N/A   Clear
10:59 PM 73.4 °F - 69.8 °F 88% 29.86 in 10.0 mi SSE 11.5 mph 16.1 mph N/A   Scattered Clouds
11:59 PM 73.4 °F - 69.8 °F 88% 29.85 in 10.0 mi SSE 10.4 mph - N/A   Clear